When you browse on this site, cookies collect data to enhance your experience and personalize the content and advertising you see.
Visit our Privacy Policy to learn more. By continuing to use the site, you agree to this use of cookies and data.
  • In Hungary
  • List of Countries
  • For 7 days
  • Water Temperature
  • Satellite Maps
  • Weather Map
  • News
  • Weather Widgets
  • user-avatar
    Login

    Hourly Weather Cambridge

    Today, 19 January, Saturday

    Time Temperature Precipitation Wind Pressure Humidity
    00:00 -1°C° 0 mm 6 mps 758 mmHg 75%
    01:00 -1°C° 0 mm 6 mps 757 mmHg 74%
    02:00 -1°C° 0 mm 6 mps 757 mmHg 73%
    03:00 -1°C° 0 mm 6 mps 757 mmHg 71%
    04:00 0°C° 0 mm 5 mps 756 mmHg 72%
    05:00 0°C° 0 mm 5 mps 756 mmHg 73%
    06:00 0°C° 0 mm 5 mps 756 mmHg 73%
    07:00 0°C° 0.1 mm 5 mps 756 mmHg 74%
    08:00 +1°C° 0.1 mm 5 mps 756 mmHg 75%
    09:00 +1°C° 0.1 mm 5 mps 756 mmHg 75%
    10:00 +1°C° 0.1 mm 6 mps 756 mmHg 76%
    11:00 +2°C° 0.1 mm 6 mps 756 mmHg 77%
    12:00 +2°C° 0.1 mm 6 mps 755 mmHg 78%
    13:00 +2°C° 0 mm 5 mps 755 mmHg 79%
    14:00 +2°C° 0 mm 5 mps 755 mmHg 81%
    15:00 +2°C° 0 mm 5 mps 755 mmHg 83%
    16:00 +3°C° 0 mm 4 mps 755 mmHg 84%
    17:00 +3°C° 0 mm 4 mps 755 mmHg 86%
    18:00 +1°C° 0 mm 4 mps 755 mmHg 88%
    19:00 +1°C° 0 mm 4 mps 755 mmHg 88%
    20:00 +2°C° 0 mm 3 mps 756 mmHg 89%
    21:00 +2°C° 0 mm 3 mps 756 mmHg 89%
    22:00 +2°C° 0 mm 3 mps 756 mmHg 89%
    23:00 +2°C° 0 mm 3 mps 756 mmHg 89%

    Tomorrow, 20 January, Sunday

    Time Temperature Precipitation Wind Pressure Humidity
    00:00 +2°C° 0 mm 3 mps 757 mmHg 88%
    01:00 +3°C° 0 mm 2 mps 757 mmHg 88%
    02:00 +3°C° 0 mm 2 mps 757 mmHg 88%
    03:00 +3°C° 0 mm 2 mps 757 mmHg 88%
    04:00 +3°C° 0 mm 2 mps 758 mmHg 88%
    05:00 +3°C° 0 mm 2 mps 758 mmHg 87%
    06:00 +3°C° 0 mm 2 mps 758 mmHg 87%
    07:00 +3°C° 0 mm 2 mps 759 mmHg 86%
    08:00 +3°C° 0 mm 2 mps 760 mmHg 85%
    09:00 +3°C° 0 mm 2 mps 761 mmHg 84%
    10:00 +4°C° 0 mm 2 mps 761 mmHg 79%
    11:00 +4°C° 0 mm 2 mps 762 mmHg 75%
    12:00 +5°C° 0 mm 2 mps 762 mmHg 71%
    13:00 +5°C° 0 mm 2 mps 762 mmHg 70%
    14:00 +5°C° 0 mm 2 mps 763 mmHg 70%
    15:00 +5°C° 0 mm 2 mps 763 mmHg 69%
    16:00 +4°C° 0 mm 2 mps 764 mmHg 74%
    17:00 +3°C° 0 mm 2 mps 764 mmHg 79%
    18:00 +2°C° 0 mm 2 mps 765 mmHg 84%
    19:00 +1°C° 0 mm 2 mps 765 mmHg 85%
    20:00 +2°C° 0 mm 1 mps 765 mmHg 87%
    21:00 +1°C° 0 mm 1 mps 766 mmHg 89%
    22:00 +1°C° 0 mm 1 mps 766 mmHg 90%
    23:00 +1°C° 0 mm 1 mps 767 mmHg 91%

    Day after tomorrow, 21 January, Monday

    Time Temperature Precipitation Wind Pressure Humidity
    00:00 +1°C° 0 mm 1 mps 767 mmHg 92%
    01:00 +1°C° 0 mm 1 mps 767 mmHg 92%
    02:00 +1°C° 0 mm 1 mps 767 mmHg 93%
    03:00 +1°C° 0 mm 1 mps 767 mmHg 93%
    04:00 +1°C° 0 mm 1 mps 767 mmHg 94%
    05:00 +1°C° 0 mm 1 mps 767 mmHg 95%
    06:00 +1°C° 0 mm 1 mps 767 mmHg 96%
    07:00 +1°C° 0 mm 1 mps 767 mmHg 95%
    08:00 +1°C° 0 mm 1 mps 767 mmHg 94%
    09:00 +1°C° 0 mm 1 mps 767 mmHg 94%
    10:00 +3°C° 0 mm 1 mps 766 mmHg 88%
    11:00 +3°C° 0 mm 2 mps 766 mmHg 83%
    12:00 +4°C° 0 mm 2 mps 766 mmHg 78%
    13:00 +3°C° 0 mm 3 mps 765 mmHg 79%
    14:00 +3°C° 0 mm 3 mps 764 mmHg 80%
    15:00 +3°C° 0 mm 3 mps 763 mmHg 81%
    16:00 +3°C° 0 mm 4 mps 762 mmHg 84%
    17:00 +1°C° 0 mm 4 mps 761 mmHg 87%
    18:00 +1°C° 0 mm 4 mps 761 mmHg 90%
    19:00 +1°C° 0 mm 5 mps 759 mmHg 89%
    20:00 +1°C° 0 mm 5 mps 758 mmHg 88%
    21:00 +2°C° 0 mm 6 mps 757 mmHg 87%
    22:00 +2°C° 0.4 mm 6 mps 755 mmHg 87%
    23:00 +3°C° 0.4 mm 7 mps 754 mmHg 86%

    22 January, Tuesday

    Time Temperature Precipitation Wind Pressure Humidity
    00:00 +3°C° 0.4 mm 7 mps 752 mmHg 86%
    01:00 +1°C° 1.2 mm 8 mps 751 mmHg 84%
    02:00 +1°C° 1.2 mm 8 mps 750 mmHg 83%
    03:00 0°C° 1.2 mm 8 mps 749 mmHg 82%
    04:00 -1°C° 0.1 mm 7 mps 749 mmHg 82%
    05:00 -2°C° 0.1 mm 6 mps 748 mmHg 82%
    06:00 -2°C° 0.1 mm 5 mps 748 mmHg 82%
    07:00 -1°C° 0 mm 5 mps 748 mmHg 83%
    08:00 -1°C° 0 mm 5 mps 748 mmHg 84%
    09:00 -1°C° 0 mm 5 mps 748 mmHg 84%
    10:00 0°C° 0 mm 5 mps 748 mmHg 80%
    11:00 +1°C° 0 mm 6 mps 748 mmHg 75%
    12:00 +1°C° 0 mm 6 mps 747 mmHg 71%
    13:00 +1°C° 0.5 mm 6 mps 747 mmHg 72%
    14:00 +1°C° 0.5 mm 5 mps 747 mmHg 74%
    15:00 0°C° 0.5 mm 5 mps 746 mmHg 76%
    16:00 0°C° 0.1 mm 5 mps 746 mmHg 78%
    17:00 -1°C° 0.1 mm 4 mps 746 mmHg 81%
    18:00 -2°C° 0.1 mm 4 mps 746 mmHg 83%
    19:00 -2°C° 0 mm 4 mps 746 mmHg 85%
    20:00 -3°C° 0 mm 4 mps 747 mmHg 86%
    21:00 -3°C° 0 mm 4 mps 747 mmHg 87%
    22:00 -3°C° 0 mm 4 mps 747 mmHg 88%
    23:00 -3°C° 0 mm 4 mps 746 mmHg 89%

    23 January, Wednesday

    Time Temperature Precipitation Wind Pressure Humidity
    00:00 -4°C° 0 mm 3 mps 746 mmHg 90%
    01:00 -4°C° 0 mm 3 mps 746 mmHg 90%
    02:00 -4°C° 0 mm 3 mps 746 mmHg 90%
    03:00 -4°C° 0 mm 3 mps 746 mmHg 90%
    04:00 -4°C° 0 mm 3 mps 746 mmHg 90%
    05:00 -4°C° 0 mm 3 mps 746 mmHg 90%
    06:00 -4°C° 0 mm 3 mps 746 mmHg 90%
    07:00 -4°C° 0 mm 3 mps 746 mmHg 89%
    08:00 -4°C° 0 mm 3 mps 747 mmHg 87%
    09:00 -4°C° 0 mm 3 mps 747 mmHg 86%
    10:00 -2°C° 0 mm 3 mps 747 mmHg 82%
    11:00 -1°C° 0 mm 4 mps 748 mmHg 78%
    12:00 0°C° 0 mm 4 mps 748 mmHg 75%
    13:00 +1°C° 0 mm 3 mps 748 mmHg 75%
    14:00 +1°C° 0 mm 3 mps 748 mmHg 75%
    15:00 +1°C° 0 mm 3 mps 748 mmHg 75%
    16:00 0°C° 0 mm 3 mps 748 mmHg 79%
    17:00 -1°C° 0 mm 3 mps 749 mmHg 82%
    18:00 -1°C° 0 mm 3 mps 749 mmHg 86%
    19:00 -1°C° 0.1 mm 3 mps 749 mmHg 85%
    20:00 -1°C° 0.1 mm 3 mps 749 mmHg 85%
    21:00 -1°C° 0.1 mm 3 mps 749 mmHg 85%
    22:00 0°C° 0.5 mm 3 mps 749 mmHg 86%
    23:00 +1°C° 0.5 mm 2 mps 749 mmHg 87%

    24 January, Thursday

    Time Temperature Precipitation Wind Pressure Humidity
    00:00 +1°C° 0.5 mm 2 mps 749 mmHg 89%
    01:00 +1°C° 0.1 mm 2 mps 750 mmHg 90%
    02:00 0°C° 0.1 mm 3 mps 751 mmHg 91%
    03:00 -1°C° 0.1 mm 3 mps 752 mmHg 92%
    04:00 -1°C° 0 mm 3 mps 753 mmHg 92%
    05:00 -2°C° 0 mm 3 mps 754 mmHg 92%
    06:00 -4°C° 0 mm 3 mps 755 mmHg 91%
    07:00 -2°C° 0 mm 3 mps 756 mmHg 91%
    08:00 -1°C° 0 mm 3 mps 757 mmHg 90%
    09:00 -1°C° 0 mm 3 mps 757 mmHg 90%
    10:00 0°C° 0 mm 3 mps 758 mmHg 87%
    11:00 +1°C° 0 mm 4 mps 758 mmHg 85%
    12:00 +3°C° 0 mm 4 mps 758 mmHg 83%
    13:00 +3°C° 0.1 mm 4 mps 758 mmHg 83%
    14:00 +3°C° 0.1 mm 4 mps 758 mmHg 83%
    15:00 +2°C° 0.1 mm 5 mps 758 mmHg 83%
    16:00 +1°C° 0.1 mm 5 mps 758 mmHg 85%
    17:00 0°C° 0.1 mm 5 mps 758 mmHg 88%
    18:00 0°C° 0.1 mm 5 mps 758 mmHg 90%
    19:00 0°C° 0.2 mm 5 mps 759 mmHg 90%
    20:00 0°C° 0.2 mm 5 mps 759 mmHg 90%
    21:00 0°C° 0.2 mm 5 mps 759 mmHg 90%
    22:00 -1°C° 0.1 mm 5 mps 759 mmHg 88%
    23:00 -1°C° 0.1 mm 5 mps 759 mmHg 87%
    Show more